sat.trackr.live / text

‹ back to catalog

SAUDICOMSAT 4

NORAD 31127 · 2007-012L

PAYLOAD ACTIVE UNKNOWN

§ Identity

Operator
Country
SAUD
Launch date
2007-04-17
Launch site
TYMSC
Launch vehicle
Mass (kg)
RCS (m²)
0.07

External: N2YO · Heavens-Above · Gunter

§ Orbital elements

Epoch: 2026-09-19T21:58:16.432608Z

Period
98.32 min
Inclination
98.4108°
Eccentricity
0.0062571
Mean motion
14.64598710 rev/d
Perigee alt
634.2 km
Apogee alt
722.5 km
Semi-major
7,056.5 km
B*
8.0785e-5
RAAN
237.4754°
Arg perigee
323.5325°
Mean anomaly
36.1623°
Rev number
3,515

§ Raw data

SAUDICOMSAT 41 31127U 07012L   26262.91546797  .00000387  00000+0  80785-4 0  99992 31127  98.4108 237.4754 0062571 323.5325  36.1623 14.64598710 35152

JSON: /api/v1/satellites/31127 · /tle

For live sub-satellite position, see the globe view (requires WebGL).

§ Visibility from observer

Set your observer location to see the next 7 days of passes ≥ 10°. The values pass through the URL so the page stays shareable.

No JS? Fill the form by hand. The geolocation button needs JavaScript.